Flag for U.S.A. Weather past 2 weeks in Fall River, Massachusetts, U.S.A.

Now
81 °F

Scattered clouds.


Feels Like: 84 °F
Forecast: 71 / 86 °F
Wind: 14 mph from Southwest

Location: New Bedford Regional Airport

Current Time: Aug 4, 2015 at 7:10:17 PM

Latest Report: Aug 4, 2015 at 5:53 PM


Visibility: 10 mi

Pressure: 29.81 "Hg

Humidity: 67%

Dew point: 69 °F

Location of Fall RiverLocation

Historic Weather in Fall River — Graph

°F

Fall River temperature yesterday

Maximum temperature yesterday: 86 °F (at 11:53 AM)
Minimum temperature yesterday: 64 °F (at 2:53 AM)
Average temperature yesterday: 77 °F

Past Weeks' High & Low Weather Summary

 TemperatureHumidityPressure
High89 °F (Jul 29, 11:53 AM)100% (Jul 28, 6:53 AM)30.06 "Hg (Jul 28, 6:53 AM)
Low56 °F (Jul 23, 3:53 AM)32% (Jul 22, 1:53 PM)29.54 "Hg (Jul 21, 6:53 PM)
Average74 °F75%29.86 "Hg
* Reported Jul 20 5:53 PM — Aug 4 5:53 PM, Fall River, Weather by CustomWeather, © 2015

Note: Actual official high and low records may vary slightly from our data, if they occured in-between our weather recording intervals... More about our weather records

Advertising

Fall River weather history for previous 24 hours

 ConditionsComfort  
Time TempWeatherWind HumidityBarometerVisibility
5:53 PM
Tue, Aug 4
81 °FScattered clouds.14 mph67%29.81 "Hg10 mi
4:53 PM82 °FPassing clouds.18 mph65%29.81 "Hg10 mi
3:53 PM83 °FSunny.16 mph70%29.80 "Hg10 mi
2:53 PM82 °FSunny.14 mph67%29.81 "Hg10 mi
1:53 PM84 °FSunny.15 mph57%29.83 "Hg10 mi
12:53 PM84 °FSunny.13 mph57%29.83 "Hg10 mi
11:53 AM83 °FSunny.12 mph55%29.84 "Hg10 mi
10:53 AM80 °FSunny.7 mph67%29.85 "Hg10 mi
9:53 AM76 °FSunny.10 mph74%29.85 "Hg10 mi
8:53 AM75 °FSunny.10 mph76%29.85 "Hg10 mi
7:53 AM67 °FPassing clouds.8 mph90%29.83 "Hg10 mi
7:04 AM67 °FStrong thunderstorms. Fog.18 mph90%29.88 "Hg2 mi
6:53 AM76 °FThunderstorms. Fog.15 mph94%29.83 "Hg3 mi
5:53 AM75 °FLow clouds.9 mph94%29.83 "Hg7 mi
4:53 AM73 °FPassing clouds.6 mph97%29.83 "Hg7 mi
3:53 AM74 °FClear.6 mph94%29.82 "Hg9 mi
2:53 AM76 °FPassing clouds.9 mph88%29.83 "Hg10 mi
1:53 AM77 °FOvercast.12 mph88%29.82 "Hg10 mi
12:53 AM76 °FMostly cloudy.13 mph91%29.82 "Hg10 mi
11:58 PM
Mon, Aug 3
74 °FPassing clouds.10 mph94%29.83 "Hg10 mi
10:53 PM74 °FClear.8 mph91%29.83 "Hg10 mi
9:53 PM74 °FClear.10 mph88%29.83 "Hg10 mi
8:53 PM75 °FSunny.10 mph85%29.81 "Hg10 mi
7:53 PM76 °FSunny.17 mph82%29.81 "Hg10 mi
Weather by CustomWeather, © 2015

See weather overviewHow to use our weather pages